Time,TemperatureF,DewpointF,PressureIn,WindDirection,WindDirectionDegrees,WindSpeedMPH,WindSpeedGustMPH,Humidity,HourlyPrecipIn,Conditions,Clouds,dailyrainin,SoftwareType,DateUTC
2013-03-17 00:00:00,36.9,29.0,29.06,North,356,6.7,6.7,73,0.00,,BKN,0.00,VWS V13.01,2013-03-17 04:00:00,
2013-03-17 00:05:00,36.9,29.0,29.06,North,356,6.7,6.7,73,0.00,,BKN,0.00,VWS V13.01,2013-03-17 04:05:00,
2013-03-17 00:10:00,36.9,29.0,29.06,North,356,6.7,6.7,73,0.00,,BKN,0.00,VWS V13.01,2013-03-17 04:10:00,
2013-03-17 00:15:00,36.9,29.0,29.06,North,356,6.7,6.7,73,0.00,,BKN,0.00,VWS V13.01,2013-03-17 04:15:00,
2013-03-17 00:20:00,36.7,28.9,29.06,North,356,6.7,6.7,73,0.00,,BKN,0.00,VWS V13.01,2013-03-17 04:20:00,
2013-03-17 00:25:00,36.7,28.9,29.06,North,356,6.7,6.7,73,0.00,,BKN,0.00,VWS V13.01,2013-03-17 04:25:00,
2013-03-17 00:30:00,36.7,28.9,29.06,North,356,6.7,6.7,73,0.00,,BKN,0.00,VWS V13.01,2013-03-17 04:30:00,
2013-03-17 00:35:00,36.7,28.9,29.06,North,356,6.7,6.7,73,0.00,,BKN,0.00,VWS V13.01,2013-03-17 04:35:00,
2013-03-17 00:40:00,36.7,28.9,29.06,North,356,6.7,6.7,73,0.00,,BKN,0.00,VWS V13.01,2013-03-17 04:40:00,
2013-03-17 00:45:00,36.5,28.7,29.06,North,356,6.7,6.7,73,0.00,,BKN,0.00,VWS V13.01,2013-03-17 04:45:00,
2013-03-17 00:50:00,36.5,28.7,29.06,North,356,6.7,6.7,73,0.00,,BKN,0.00,VWS V13.01,2013-03-17 04:50:00,
2013-03-17 00:55:00,36.5,29.0,29.06,North,356,6.7,6.7,74,0.00,,BKN,0.00,VWS V13.01,2013-03-17 04:55:00,
2013-03-17 01:00:00,36.3,28.8,29.06,North,356,6.7,6.7,74,0.00,,BKN,0.00,VWS V13.01,2013-03-17 05:00:00,
2013-03-17 01:05:00,36.3,28.8,29.06,North,356,6.7,6.7,74,0.00,,BKN,0.00,VWS V13.01,2013-03-17 05:05:00,
2013-03-17 01:10:00,36.1,28.7,29.06,North,356,6.7,6.7,74,0.00,,BKN,0.00,VWS V13.01,2013-03-17 05:10:00,
2013-03-17 01:14:00,36.1,28.7,29.06,North,356,6.7,6.7,74,0.00,,BKN,0.00,VWS V13.01,2013-03-17 05:14:00,
2013-03-17 01:19:00,36.1,28.7,29.06,North,356,6.7,6.7,74,0.00,,BKN,0.00,VWS V13.01,2013-03-17 05:19:00,
2013-03-17 01:24:00,36.1,28.7,29.06,North,356,6.7,6.7,74,0.00,,BKN,0.00,VWS V13.01,2013-03-17 05:24:00,
2013-03-17 01:29:00,36.1,28.7,29.06,North,356,6.7,6.7,74,0.00,,BKN,0.00,VWS V13.01,2013-03-17 05:29:00,
2013-03-17 01:34:00,36.0,28.5,29.06,North,356,6.7,6.7,74,0.00,,BKN,0.00,VWS V13.01,2013-03-17 05:34:00,
2013-03-17 01:39:00,35.8,28.3,29.06,North,356,6.7,6.7,74,0.00,,BKN,0.00,VWS V13.01,2013-03-17 05:39:00,
2013-03-17 01:44:00,35.6,28.1,29.06,North,356,6.7,6.7,74,0.00,,BKN,0.00,VWS V13.01,2013-03-17 05:44:00,
2013-03-17 01:49:00,35.6,28.1,29.06,North,356,6.7,6.7,74,0.00,,BKN,0.00,VWS V13.01,2013-03-17 05:49:00,
2013-03-17 01:54:00,35.4,27.6,29.06,North,356,6.7,6.7,73,0.00,,BKN,0.00,VWS V13.01,2013-03-17 05:54:00,
2013-03-17 01:59:00,35.4,27.6,29.06,North,356,6.7,6.7,73,0.00,,BKN,0.00,VWS V13.01,2013-03-17 05:59:00,
2013-03-17 02:04:00,35.4,27.6,29.06,North,356,6.7,6.7,73,0.00,,BKN,0.00,VWS V13.01,2013-03-17 06:04:00,
2013-03-17 02:09:00,35.4,28.0,29.06,North,356,6.7,6.7,74,0.00,,BKN,0.00,VWS V13.01,2013-03-17 06:09:00,
2013-03-17 02:14:00,35.4,28.0,29.06,North,356,6.7,6.7,74,0.00,,BKN,0.00,VWS V13.01,2013-03-17 06:14:00,
2013-03-17 02:19:00,35.6,28.1,29.06,North,356,6.7,6.7,74,0.00,,BKN,0.00,VWS V13.01,2013-03-17 06:19:00,
2013-03-17 02:24:00,35.6,28.1,29.06,North,356,6.7,6.7,74,0.00,,BKN,0.00,VWS V13.01,2013-03-17 06:24:00,
2013-03-17 02:29:00,35.6,28.1,29.06,North,356,6.7,6.7,74,0.00,,BKN,0.00,VWS V13.01,2013-03-17 06:29:00,
2013-03-17 02:34:00,35.6,28.1,29.06,North,356,6.7,6.7,74,0.00,,BKN,0.00,VWS V13.01,2013-03-17 06:34:00,
2013-03-17 02:39:00,35.8,28.3,29.06,North,356,6.7,6.7,74,0.00,,BKN,0.00,VWS V13.01,2013-03-17 06:39:00,
2013-03-17 02:44:00,35.8,28.3,29.06,North,356,6.7,6.7,74,0.00,,BKN,0.00,VWS V13.01,2013-03-17 06:44:00,
2013-03-17 02:49:00,35.8,28.3,29.06,North,356,6.7,6.7,74,0.00,,BKN,0.00,VWS V13.01,2013-03-17 06:49:00,
2013-03-17 02:54:00,35.8,28.3,29.06,North,356,6.7,6.7,74,0.00,,BKN,0.00,VWS V13.01,2013-03-17 06:54:00,
2013-03-17 02:59:00,36.0,28.5,29.06,North,356,6.7,6.7,74,0.00,,BKN,0.00,VWS V13.01,2013-03-17 06:59:00,
2013-03-17 03:04:00,36.0,28.5,29.06,North,356,6.7,6.7,74,0.00,,BKN,0.00,VWS V13.01,2013-03-17 07:04:00,
2013-03-17 03:09:00,36.0,28.8,29.06,North,356,6.7,6.7,75,0.00,,BKN,0.00,VWS V13.01,2013-03-17 07:09:00,
2013-03-17 03:14:00,36.0,28.8,29.06,North,356,6.7,6.7,75,0.00,,BKN,0.00,VWS V13.01,2013-03-17 07:14:00,
2013-03-17 03:19:00,35.8,28.6,29.06,North,356,6.7,6.7,75,0.00,,BKN,0.00,VWS V13.01,2013-03-17 07:19:00,
2013-03-17 03:24:00,35.8,28.6,29.06,North,356,6.7,6.7,75,0.00,,BKN,0.00,VWS V13.01,2013-03-17 07:24:00,
2013-03-17 03:29:00,35.8,28.6,29.06,North,356,6.7,6.7,75,0.00,,BKN,0.00,VWS V13.01,2013-03-17 07:29:00,
2013-03-17 03:34:00,35.8,28.6,29.06,North,356,6.7,6.7,75,0.00,,BKN,0.00,VWS V13.01,2013-03-17 07:34:00,
2013-03-17 03:39:00,35.8,28.6,29.06,North,356,6.7,6.7,75,0.00,,BKN,0.00,VWS V13.01,2013-03-17 07:39:00,
2013-03-17 03:44:00,35.8,28.6,29.06,North,356,6.7,6.7,75,0.00,,BKN,0.00,VWS V13.01,2013-03-17 07:44:00,
2013-03-17 03:49:00,35.6,28.5,29.06,North,356,6.7,6.7,75,0.00,,BKN,0.00,VWS V13.01,2013-03-17 07:49:00,
2013-03-17 03:54:00,35.6,28.5,29.06,North,356,6.7,6.7,75,0.00,,BKN,0.00,VWS V13.01,2013-03-17 07:54:00,
2013-03-17 03:59:00,35.6,28.5,29.09,North,356,6.7,6.7,75,0.00,,BKN,0.00,VWS V13.01,2013-03-17 07:59:00,
2013-03-17 04:04:00,35.6,28.5,29.09,North,356,6.7,6.7,75,0.00,,BKN,0.00,VWS V13.01,2013-03-17 08:04:00,
2013-03-17 04:09:00,35.6,28.5,29.09,North,356,6.7,6.7,75,0.00,,BKN,0.00,VWS V13.01,2013-03-17 08:09:00,
2013-03-17 04:14:00,35.6,28.5,29.09,North,356,6.7,6.7,75,0.00,,BKN,0.00,VWS V13.01,2013-03-17 08:14:00,
2013-03-17 04:19:00,35.6,28.5,29.09,North,356,6.7,6.7,75,0.00,,BKN,0.00,VWS V13.01,2013-03-17 08:19:00,
2013-03-17 04:24:00,35.6,28.5,29.12,North,356,6.7,6.7,75,0.00,,BKN,0.00,VWS V13.01,2013-03-17 08:24:00,
2013-03-17 04:29:00,35.6,28.5,29.12,North,356,6.7,6.7,75,0.00,,BKN,0.00,VWS V13.01,2013-03-17 08:29:00,
2013-03-17 04:34:00,35.6,28.5,29.12,North,356,6.7,6.7,75,0.00,,BKN,0.00,VWS V13.01,2013-03-17 08:34:00,
2013-03-17 04:39:00,35.6,28.5,29.09,North,356,6.7,6.7,75,0.00,,BKN,0.00,VWS V13.01,2013-03-17 08:39:00,
2013-03-17 04:44:00,35.6,28.5,29.09,North,356,6.7,6.7,75,0.00,,BKN,0.00,VWS V13.01,2013-03-17 08:44:00,
2013-03-17 04:49:00,35.6,28.5,29.09,North,356,6.7,6.7,75,0.00,,BKN,0.00,VWS V13.01,2013-03-17 08:49:00,
2013-03-17 04:54:00,35.6,28.5,29.12,North,356,6.7,6.7,75,0.00,,BKN,0.00,VWS V13.01,2013-03-17 08:54:00,
2013-03-17 04:59:00,35.6,28.5,29.12,North,356,6.7,6.7,75,0.00,,BKN,0.00,VWS V13.01,2013-03-17 08:59:00,
2013-03-17 05:04:00,35.6,28.8,29.12,North,356,6.7,6.7,76,0.00,,BKN,0.00,VWS V13.01,2013-03-17 09:04:00,
2013-03-17 05:09:00,35.4,28.6,29.12,North,356,6.7,6.7,76,0.00,,BKN,0.00,VWS V13.01,2013-03-17 09:09:00,
2013-03-17 05:14:00,35.4,28.6,29.12,North,356,6.7,6.7,76,0.00,,BKN,0.00,VWS V13.01,2013-03-17 09:14:00,
2013-03-17 05:19:00,35.4,28.6,29.12,North,356,6.7,6.7,76,0.00,,BKN,0.00,VWS V13.01,2013-03-17 09:19:00,
2013-03-17 05:24:00,35.4,28.6,29.12,North,356,6.7,6.7,76,0.00,,BKN,0.00,VWS V13.01,2013-03-17 09:24:00,
2013-03-17 05:29:00,35.4,28.3,29.12,North,356,6.7,6.7,75,0.00,,BKN,0.00,VWS V13.01,2013-03-17 09:29:00,
2013-03-17 05:34:00,35.4,28.3,29.12,North,356,6.7,6.7,75,0.00,,BKN,0.00,VWS V13.01,2013-03-17 09:34:00,
2013-03-17 05:39:00,35.4,28.3,29.12,North,356,6.7,6.7,75,0.00,,BKN,0.00,VWS V13.01,2013-03-17 09:39:00,
2013-03-17 05:44:00,35.4,28.3,29.12,North,356,6.7,6.7,75,0.00,,BKN,0.00,VWS V13.01,2013-03-17 09:44:00,
2013-03-17 05:49:00,35.4,28.3,29.12,North,356,6.7,6.7,75,0.00,,BKN,0.00,VWS V13.01,2013-03-17 09:49:00,
2013-03-17 05:54:00,35.4,28.3,29.15,North,356,6.7,6.7,75,0.00,,BKN,0.00,VWS V13.01,2013-03-17 09:54:00,
2013-03-17 05:59:00,35.4,28.3,29.15,North,356,6.7,6.7,75,0.00,,BKN,0.00,VWS V13.01,2013-03-17 09:59:00,
2013-03-17 06:04:00,35.4,28.3,29.15,North,356,6.7,6.7,75,0.00,,BKN,0.00,VWS V13.01,2013-03-17 10:04:00,
2013-03-17 06:09:00,35.4,28.0,29.15,North,356,6.7,6.7,74,0.00,,BKN,0.00,VWS V13.01,2013-03-17 10:09:00,
2013-03-17 06:14:00,35.4,28.0,29.15,North,356,6.7,6.7,74,0.00,,BKN,0.00,VWS V13.01,2013-03-17 10:14:00,
2013-03-17 06:19:00,35.4,28.0,29.15,North,356,6.7,6.7,74,0.00,,BKN,0.00,VWS V13.01,2013-03-17 10:19:00,
2013-03-17 06:24:00,35.4,28.0,29.15,North,356,6.7,6.7,74,0.00,,BKN,0.00,VWS V13.01,2013-03-17 10:24:00,
2013-03-17 06:29:00,35.4,28.0,29.15,North,356,6.7,6.7,74,0.00,,BKN,0.00,VWS V13.01,2013-03-17 10:29:00,
2013-03-17 06:34:00,35.4,28.0,29.15,North,356,6.7,6.7,74,0.00,,BKN,0.00,VWS V13.01,2013-03-17 10:34:00,
2013-03-17 06:39:00,35.4,28.0,29.15,North,356,6.7,6.7,74,0.00,,BKN,0.00,VWS V13.01,2013-03-17 10:39:00,
2013-03-17 06:44:00,35.4,28.0,29.15,North,356,6.7,6.7,74,0.00,,BKN,0.00,VWS V13.01,2013-03-17 10:44:00,
2013-03-17 06:49:00,35.4,28.0,29.15,North,356,6.7,6.7,74,0.00,,BKN,0.00,VWS V13.01,2013-03-17 10:49:00,
2013-03-17 06:54:00,35.4,28.0,29.18,North,356,6.7,6.7,74,0.00,,BKN,0.00,VWS V13.01,2013-03-17 10:54:00,
2013-03-17 06:59:00,35.4,28.0,29.18,North,356,6.7,6.7,74,0.00,,BKN,0.00,VWS V13.01,2013-03-17 10:59:00,
2013-03-17 07:04:00,35.4,28.0,29.18,North,356,6.7,6.7,74,0.00,,BKN,0.00,VWS V13.01,2013-03-17 11:04:00,
2013-03-17 07:09:00,35.4,28.0,29.18,North,356,6.7,6.7,74,0.00,,BKN,0.00,VWS V13.01,2013-03-17 11:09:00,
2013-03-17 07:14:00,35.4,28.0,29.18,North,356,6.7,6.7,74,0.00,,BKN,0.00,VWS V13.01,2013-03-17 11:14:00,
2013-03-17 07:19:00,35.2,27.8,29.18,North,356,6.7,6.7,74,0.00,,BKN,0.00,VWS V13.01,2013-03-17 11:19:00,
2013-03-17 07:24:00,35.2,27.8,29.18,North,356,6.7,6.7,74,0.00,,BKN,0.00,VWS V13.01,2013-03-17 11:24:00,
2013-03-17 07:29:00,35.2,27.8,29.18,North,356,6.7,6.7,74,0.00,,BKN,0.00,VWS V13.01,2013-03-17 11:29:00,
2013-03-17 07:34:00,35.4,28.0,29.18,North,356,6.7,6.7,74,0.00,,BKN,0.00,VWS V13.01,2013-03-17 11:34:00,
2013-03-17 07:39:00,35.4,28.0,29.21,North,356,6.7,6.7,74,0.00,,BKN,0.00,VWS V13.01,2013-03-17 11:39:00,
2013-03-17 07:44:00,35.4,28.0,29.21,North,356,6.7,6.7,74,0.00,,BKN,0.00,VWS V13.01,2013-03-17 11:44:00,
2013-03-17 07:49:00,35.4,28.0,29.21,North,356,6.7,6.7,74,0.00,,BKN,0.00,VWS V13.01,2013-03-17 11:49:00,
2013-03-17 07:54:00,35.4,28.0,29.21,North,356,6.7,6.7,74,0.00,,BKN,0.00,VWS V13.01,2013-03-17 11:54:00,
2013-03-17 07:59:00,35.6,28.1,29.21,North,356,6.7,6.7,74,0.00,,BKN,0.00,VWS V13.01,2013-03-17 11:59:00,
2013-03-17 08:04:00,35.6,28.1,29.21,North,356,6.7,6.7,74,0.00,,BKN,0.00,VWS V13.01,2013-03-17 12:04:00,
2013-03-17 08:09:00,35.6,27.8,29.21,North,356,6.7,6.7,73,0.00,,BKN,0.00,VWS V13.01,2013-03-17 12:09:00,
2013-03-17 08:14:00,35.6,27.8,29.21,North,356,6.7,6.7,73,0.00,,BKN,0.00,VWS V13.01,2013-03-17 12:14:00,
2013-03-17 08:19:00,35.6,27.8,29.21,North,356,6.7,6.7,73,0.00,,BKN,0.00,VWS V13.01,2013-03-17 12:19:00,
2013-03-17 08:24:00,35.8,28.0,29.21,North,356,6.7,6.7,73,0.00,,BKN,0.00,VWS V13.01,2013-03-17 12:24:00,
2013-03-17 08:29:00,35.8,27.6,29.21,North,0,4.9,4.9,72,0.00,,BKN,0.00,VWS V13.01,2013-03-17 12:29:00,
2013-03-17 08:34:00,35.8,27.6,29.21,North,351,4.0,4.0,72,0.00,,BKN,0.00,VWS V13.01,2013-03-17 12:34:00,
2013-03-17 08:39:00,35.8,27.6,29.23,North,351,3.6,4.0,72,0.00,,BKN,0.00,VWS V13.01,2013-03-17 12:39:00,
2013-03-17 08:44:00,35.8,27.6,29.23,NE,50,3.1,3.6,72,0.00,,BKN,0.00,VWS V13.01,2013-03-17 12:44:00,
2013-03-17 08:49:00,36.0,27.8,29.23,North,2,4.0,4.0,72,0.00,,BKN,0.00,VWS V13.01,2013-03-17 12:49:00,
2013-03-17 08:54:00,36.1,28.0,29.23,North,2,2.7,3.6,72,0.00,,BKN,0.00,VWS V13.01,2013-03-17 12:54:00,
2013-03-17 08:59:00,36.1,28.0,29.23,North,11,4.0,4.0,72,0.00,,BKN,0.00,VWS V13.01,2013-03-17 12:59:00,
2013-03-17 09:04:00,36.1,28.0,29.23,NNE,17,4.0,4.5,72,0.00,,BKN,0.00,VWS V13.01,2013-03-17 13:04:00,
2013-03-17 09:09:00,36.3,28.2,29.23,NNE,27,4.9,4.9,72,0.00,,BKN,0.00,VWS V13.01,2013-03-17 13:09:00,
2013-03-17 09:14:00,36.3,27.8,29.23,North,0,3.6,3.6,71,0.00,,BKN,0.00,VWS V13.01,2013-03-17 13:14:00,
2013-03-17 09:19:00,36.5,28.0,29.23,NE,35,5.4,5.4,71,0.00,,BKN,0.00,VWS V13.01,2013-03-17 13:19:00,
2013-03-17 09:24:00,36.7,28.2,29.23,NNE,30,4.5,4.5,71,0.00,,BKN,0.00,VWS V13.01,2013-03-17 13:24:00,
2013-03-17 09:29:00,36.7,28.2,29.23,ENE,73,0.0,0.0,71,0.00,,BKN,0.00,VWS V13.01,2013-03-17 13:29:00,
2013-03-17 09:34:00,36.7,28.2,29.23,North,351,3.6,4.0,71,0.00,,BKN,0.00,VWS V13.01,2013-03-17 13:34:00,
2013-03-17 09:39:00,36.7,28.2,29.26,North,351,3.6,3.6,71,0.00,,BKN,0.00,VWS V13.01,2013-03-17 13:39:00,
2013-03-17 09:44:00,36.9,28.4,29.26,North,351,2.7,3.1,71,0.00,,BKN,0.00,VWS V13.01,2013-03-17 13:44:00,
2013-03-17 09:49:00,36.9,28.0,29.26,NNW,342,3.6,4.5,70,0.00,,BKN,0.00,VWS V13.01,2013-03-17 13:49:00,
2013-03-17 09:54:00,36.9,28.0,29.26,North,1,3.6,3.6,70,0.00,,BKN,0.00,VWS V13.01,2013-03-17 13:54:00,
2013-03-17 09:59:00,36.9,28.0,29.26,North,1,3.6,3.6,70,0.00,,BKN,0.00,VWS V13.01,2013-03-17 13:59:00,
2013-03-17 10:04:00,36.9,28.0,29.26,NE,50,2.7,4.0,70,0.00,,BKN,0.00,VWS V13.01,2013-03-17 14:04:00,
2013-03-17 10:09:00,36.9,27.7,29.29,NE,45,2.7,4.0,69,0.00,,BKN,0.00,VWS V13.01,2013-03-17 14:09:00,
2013-03-17 10:13:00,36.9,27.7,29.29,NE,42,3.1,3.6,69,0.00,,BKN,0.00,VWS V13.01,2013-03-17 14:13:00,
2013-03-17 10:19:00,36.9,27.7,29.29,NE,41,3.6,4.9,69,0.00,,BKN,0.00,VWS V13.01,2013-03-17 14:19:00,
2013-03-17 10:24:00,36.9,27.3,29.26,North,8,3.6,4.5,68,0.00,,BKN,0.00,VWS V13.01,2013-03-17 14:24:00,
2013-03-17 10:28:00,36.9,27.3,29.26,North,8,0.0,2.7,68,0.00,,BKN,0.00,VWS V13.01,2013-03-17 14:28:00,
2013-03-17 10:33:00,37.0,27.5,29.26,NE,55,4.9,4.9,68,0.00,,BKN,0.00,VWS V13.01,2013-03-17 14:33:00,
2013-03-17 10:38:00,37.0,27.5,29.26,NE,56,4.0,4.5,68,0.00,,BKN,0.00,VWS V13.01,2013-03-17 14:38:00,
2013-03-17 10:44:00,37.0,26.8,29.26,North,6,4.9,6.7,66,0.00,,BKN,0.00,VWS V13.01,2013-03-17 14:44:00,
2013-03-17 10:49:00,37.0,26.4,29.26,NE,43,5.4,6.7,65,0.00,,BKN,0.00,VWS V13.01,2013-03-17 14:49:00,
2013-03-17 10:54:00,37.2,26.2,29.26,NE,55,4.9,5.8,64,0.00,,BKN,0.00,VWS V13.01,2013-03-17 14:54:00,
2013-03-17 10:58:00,37.4,26.0,29.26,NNE,14,5.4,6.7,63,0.00,,BKN,0.00,VWS V13.01,2013-03-17 14:58:00,
2013-03-17 11:03:00,37.4,25.2,29.26,NNE,23,5.4,5.8,61,0.00,,BKN,0.00,VWS V13.01,2013-03-17 15:03:00,
2013-03-17 11:08:00,37.6,25.4,29.26,North,351,6.7,6.7,61,0.00,,BKN,0.00,VWS V13.01,2013-03-17 15:08:00,
2013-03-17 11:13:00,37.4,25.2,29.26,North,351,6.3,6.9,61,0.00,,BKN,0.00,VWS V13.01,2013-03-17 15:13:00,
2013-03-17 11:18:00,37.4,24.8,29.26,ENE,59,5.4,6.7,60,0.00,,BKN,0.00,VWS V13.01,2013-03-17 15:18:00,
2013-03-17 11:23:00,37.2,23.8,29.26,North,4,6.3,8.7,58,0.00,,BKN,0.00,VWS V13.01,2013-03-17 15:23:00,
2013-03-17 11:28:00,37.2,23.8,29.26,NNW,347,4.5,6.7,58,0.00,,BKN,0.00,VWS V13.01,2013-03-17 15:28:00,
2013-03-17 11:33:00,37.2,23.4,29.26,North,2,6.3,6.9,57,0.00,,BKN,0.00,VWS V13.01,2013-03-17 15:33:00,
2013-03-17 11:38:00,37.2,22.6,29.29,NNE,21,5.8,8.7,55,0.00,,BKN,0.00,VWS V13.01,2013-03-17 15:38:00,
2013-03-17 11:43:00,37.0,22.0,29.29,North,4,8.3,8.7,54,0.00,,BKN,0.00,VWS V13.01,2013-03-17 15:43:00,
2013-03-17 11:48:00,36.9,21.3,29.29,NE,39,6.7,8.7,53,0.00,,BKN,0.00,VWS V13.01,2013-03-17 15:48:00,
2013-03-17 11:53:00,36.7,21.2,29.29,NNE,25,6.9,9.2,53,0.00,,BKN,0.00,VWS V13.01,2013-03-17 15:53:00,
2013-03-17 11:58:00,36.5,21.5,29.29,NNE,31,6.3,6.9,54,0.00,,BKN,0.00,VWS V13.01,2013-03-17 15:58:00,
2013-03-17 12:03:00,36.3,21.3,29.29,North,9,5.8,8.7,54,0.00,,BKN,0.00,VWS V13.01,2013-03-17 16:03:00,
2013-03-17 12:08:00,36.1,20.7,29.29,North,5,6.7,8.7,53,0.00,,BKN,0.00,VWS V13.01,2013-03-17 16:08:00,
2013-03-17 12:13:00,36.0,20.1,29.29,North,351,7.8,8.7,52,0.00,,BKN,0.00,VWS V13.01,2013-03-17 16:13:00,
2013-03-17 12:18:00,35.8,19.9,29.29,North,7,8.3,10.5,52,0.00,,BKN,0.00,VWS V13.01,2013-03-17 16:18:00,
2013-03-17 12:23:00,35.6,19.7,29.29,NNE,26,6.9,8.3,52,0.00,,BKN,0.00,VWS V13.01,2013-03-17 16:23:00,
2013-03-17 12:28:00,35.6,19.3,29.29,NNE,18,7.4,7.4,51,0.00,,BKN,0.00,VWS V13.01,2013-03-17 16:28:00,
2013-03-17 12:33:00,35.6,19.3,29.29,NNE,15,6.7,8.7,51,0.00,,BKN,0.00,VWS V13.01,2013-03-17 16:33:00,
2013-03-17 12:38:00,35.6,19.3,29.29,North,3,5.4,8.3,51,0.00,,BKN,0.00,VWS V13.01,2013-03-17 16:38:00,
2013-03-17 12:43:00,35.6,19.3,29.29,North,3,5.8,6.9,51,0.00,,BKN,0.00,VWS V13.01,2013-03-17 16:43:00,
2013-03-17 12:48:00,35.6,19.3,29.29,NNE,15,6.3,6.3,51,0.00,,BKN,0.00,VWS V13.01,2013-03-17 16:48:00,
2013-03-17 12:53:00,35.6,18.8,29.29,NNE,32,8.3,8.3,50,0.00,,BKN,0.00,VWS V13.01,2013-03-17 16:53:00,
2013-03-17 12:58:00,35.6,18.8,29.29,NNE,18,6.7,7.4,50,0.00,,BKN,0.00,VWS V13.01,2013-03-17 16:58:00,
2013-03-17 13:03:00,35.6,18.8,29.29,NNE,24,6.3,7.8,50,0.00,,BKN,0.00,VWS V13.01,2013-03-17 17:03:00,
2013-03-17 13:08:00,35.8,19.0,29.29,North,8,6.7,7.4,50,0.00,,BKN,0.00,VWS V13.01,2013-03-17 17:08:00,
2013-03-17 13:13:00,35.8,19.0,29.29,NNE,29,6.7,7.4,50,0.00,,BKN,0.00,VWS V13.01,2013-03-17 17:13:00,
2013-03-17 13:18:00,35.8,18.5,29.29,North,11,7.8,9.2,49,0.00,,BKN,0.00,VWS V13.01,2013-03-17 17:18:00,
2013-03-17 13:23:00,35.6,18.3,29.29,NNE,23,6.3,6.9,49,0.00,,BKN,0.00,VWS V13.01,2013-03-17 17:23:00,
2013-03-17 13:28:00,35.4,18.2,29.29,North,351,4.5,6.3,49,0.00,,BKN,0.00,VWS V13.01,2013-03-17 17:28:00,
2013-03-17 13:33:00,35.6,18.3,29.29,North,356,6.7,8.3,49,0.00,,BKN,0.00,VWS V13.01,2013-03-17 17:33:00,
2013-03-17 13:38:00,35.8,18.5,29.29,NNE,32,4.5,6.3,49,0.00,,BKN,0.00,VWS V13.01,2013-03-17 17:38:00,
2013-03-17 13:43:00,35.8,18.0,29.29,North,5,7.8,8.7,48,0.00,,BKN,0.00,VWS V13.01,2013-03-17 17:43:00,
2013-03-17 13:48:00,35.8,17.5,29.29,North,10,5.8,7.8,47,0.00,,BKN,0.00,VWS V13.01,2013-03-17 17:48:00,
2013-03-17 13:53:00,35.8,18.0,29.29,NNE,12,3.6,4.9,48,0.00,,BKN,0.00,VWS V13.01,2013-03-17 17:53:00,
2013-03-17 13:58:00,36.0,17.7,29.29,North,8,5.4,7.8,47,0.00,,BKN,0.00,VWS V13.01,2013-03-17 17:58:00,
2013-03-17 14:03:00,36.0,17.7,29.29,NNE,19,5.4,5.8,47,0.00,,BKN,0.00,VWS V13.01,2013-03-17 18:03:00,
2013-03-17 14:08:00,36.1,17.9,29.29,North,1,5.8,6.7,47,0.00,,BKN,0.00,VWS V13.01,2013-03-17 18:08:00,
2013-03-17 14:13:00,36.1,17.9,29.29,North,0,4.9,6.3,47,0.00,,BKN,0.00,VWS V13.01,2013-03-17 18:13:00,
2013-03-17 14:18:00,36.1,17.4,29.29,NNE,19,7.4,7.4,46,0.00,,BKN,0.00,VWS V13.01,2013-03-17 18:18:00,
2013-03-17 14:23:00,36.0,17.2,29.29,North,11,4.5,6.3,46,0.00,,BKN,0.00,VWS V13.01,2013-03-17 18:23:00,
2013-03-17 14:28:00,36.1,17.4,29.29,North,2,4.9,5.4,46,0.00,,BKN,0.00,VWS V13.01,2013-03-17 18:28:00,
2013-03-17 14:33:00,36.0,17.2,29.29,NNE,21,6.3,6.3,46,0.00,,BKN,0.00,VWS V13.01,2013-03-17 18:33:00,
2013-03-17 14:38:00,36.0,16.7,29.29,North,351,6.3,6.3,45,0.00,,BKN,0.00,VWS V13.01,2013-03-17 18:38:00,
2013-03-17 14:43:00,36.0,17.2,29.29,NNW,330,4.5,5.8,46,0.00,,BKN,0.00,VWS V13.01,2013-03-17 18:43:00,
2013-03-17 14:48:00,36.1,17.4,29.29,NNE,15,5.4,5.4,46,0.00,,BKN,0.00,VWS V13.01,2013-03-17 18:48:00,
2013-03-17 14:53:00,36.1,17.4,29.29,NNW,343,3.1,3.6,46,0.00,,BKN,0.00,VWS V13.01,2013-03-17 18:53:00,
2013-03-17 14:58:00,36.1,17.4,29.29,NNE,19,5.8,6.3,46,0.00,,BKN,0.00,VWS V13.01,2013-03-17 18:58:00,
2013-03-17 15:03:00,36.1,16.9,29.29,NNW,337,4.0,5.4,45,0.00,,BKN,0.00,VWS V13.01,2013-03-17 19:03:00,
2013-03-17 15:08:00,36.1,16.9,29.29,NNW,344,4.5,4.5,45,0.00,,BKN,0.00,VWS V13.01,2013-03-17 19:08:00,
2013-03-17 15:13:00,36.3,17.0,29.29,North,5,4.0,5.4,45,0.00,,BKN,0.00,VWS V13.01,2013-03-17 19:13:00,
2013-03-17 15:18:00,36.1,16.4,29.29,NE,40,5.4,6.3,44,0.00,,BKN,0.00,VWS V13.01,2013-03-17 19:18:00,
2013-03-17 15:23:00,36.1,16.4,29.29,NNE,21,5.8,5.8,44,0.00,,BKN,0.00,VWS V13.01,2013-03-17 19:23:00,
2013-03-17 15:28:00,36.3,16.5,29.29,NE,53,4.0,4.9,44,0.00,,BKN,0.00,VWS V13.01,2013-03-17 19:28:00,
2013-03-17 15:33:00,36.3,16.5,29.29,NNE,22,6.9,7.4,44,0.00,,BKN,0.00,VWS V13.01,2013-03-17 19:33:00,
2013-03-17 15:38:00,36.1,16.4,29.29,NNE,31,3.6,4.5,44,0.00,,BKN,0.00,VWS V13.01,2013-03-17 19:38:00,
2013-03-17 15:43:00,36.1,16.4,29.29,NE,53,4.9,4.9,44,0.00,,BKN,0.00,VWS V13.01,2013-03-17 19:43:00,
2013-03-17 15:48:00,36.1,16.4,29.29,NNE,21,5.4,6.7,44,0.00,,BKN,0.00,VWS V13.01,2013-03-17 19:48:00,
2013-03-17 15:53:00,36.1,15.8,29.29,NE,39,6.9,8.3,43,0.00,,BKN,0.00,VWS V13.01,2013-03-17 19:53:00,
2013-03-17 15:58:00,36.1,16.4,29.29,NE,51,5.8,6.3,44,0.00,,BKN,0.00,VWS V13.01,2013-03-17 19:58:00,
2013-03-17 16:03:00,36.1,15.8,29.29,NE,34,5.4,6.9,43,0.00,,BKN,0.00,VWS V13.01,2013-03-17 20:03:00,
2013-03-17 16:08:00,36.3,16.5,29.29,North,351,5.4,5.4,44,0.00,,BKN,0.00,VWS V13.01,2013-03-17 20:08:00,
2013-03-17 16:13:00,36.3,16.5,29.29,NE,38,5.8,6.7,44,0.00,,BKN,0.00,VWS V13.01,2013-03-17 20:13:00,
2013-03-17 16:18:00,36.5,16.7,29.29,NE,42,3.6,4.9,44,0.00,,BKN,0.00,VWS V13.01,2013-03-17 20:18:00,
2013-03-17 16:23:00,36.7,16.3,29.29,NNE,32,4.0,5.8,43,0.00,,BKN,0.00,VWS V13.01,2013-03-17 20:23:00,
2013-03-17 16:28:00,36.5,16.1,29.29,North,0,4.9,5.4,43,0.00,,BKN,0.00,VWS V13.01,2013-03-17 20:28:00,
2013-03-17 16:33:00,36.5,16.1,29.29,North,356,4.0,4.5,43,0.00,,BKN,0.00,VWS V13.01,2013-03-17 20:33:00,
2013-03-17 16:38:00,36.5,16.1,29.29,NE,49,5.4,5.8,43,0.00,,BKN,0.00,VWS V13.01,2013-03-17 20:38:00,
2013-03-17 16:43:00,36.5,16.1,29.29,ENE,62,4.5,5.4,43,0.00,,BKN,0.00,VWS V13.01,2013-03-17 20:43:00,
2013-03-17 16:48:00,36.5,16.1,29.29,NNE,33,3.6,3.6,43,0.00,,BKN,0.00,VWS V13.01,2013-03-17 20:48:00,
2013-03-17 16:53:00,36.7,16.3,29.29,North,7,4.0,4.5,43,0.00,,BKN,0.00,VWS V13.01,2013-03-17 20:53:00,
2013-03-17 16:58:00,36.7,16.3,29.29,NE,34,5.4,5.4,43,0.00,,BKN,0.00,VWS V13.01,2013-03-17 20:58:00,
2013-03-17 17:03:00,36.9,16.5,29.29,NNE,22,4.9,4.9,43,0.00,,BKN,0.00,VWS V13.01,2013-03-17 21:03:00,
2013-03-17 17:08:00,36.7,16.3,29.29,ENE,57,4.0,4.9,43,0.00,,BKN,0.00,VWS V13.01,2013-03-17 21:08:00,
2013-03-17 17:13:00,36.7,16.3,29.29,East,88,4.9,5.4,43,0.00,,BKN,0.00,VWS V13.01,2013-03-17 21:13:00,
2013-03-17 17:18:00,36.7,15.8,29.29,ESE,118,4.0,4.9,42,0.00,,BKN,0.00,VWS V13.01,2013-03-17 21:18:00,
2013-03-17 17:23:00,36.7,15.8,29.29,ENE,59,4.0,4.5,42,0.00,,BKN,0.00,VWS V13.01,2013-03-17 21:23:00,
2013-03-17 17:28:00,36.7,15.8,29.29,ENE,73,3.6,4.0,42,0.00,,BKN,0.00,VWS V13.01,2013-03-17 21:28:00,
2013-03-17 17:33:00,36.9,16.5,29.29,East,95,2.7,2.7,43,0.00,,BKN,0.00,VWS V13.01,2013-03-17 21:33:00,
2013-03-17 17:38:00,36.9,16.5,29.29,East,82,4.0,4.9,43,0.00,,BKN,0.00,VWS V13.01,2013-03-17 21:38:00,
2013-03-17 17:43:00,36.9,15.9,29.29,NE,45,4.9,5.4,42,0.00,,BKN,0.00,VWS V13.01,2013-03-17 21:43:00,
2013-03-17 17:48:00,36.9,15.9,29.29,NE,45,3.1,4.9,42,0.00,,BKN,0.00,VWS V13.01,2013-03-17 21:48:00,
2013-03-17 17:53:00,36.7,15.8,29.29,ENE,69,2.7,3.1,42,0.00,,BKN,0.00,VWS V13.01,2013-03-17 21:53:00,
2013-03-17 17:58:00,36.9,16.5,29.29,East,83,3.1,4.0,43,0.00,,BKN,0.00,VWS V13.01,2013-03-17 21:58:00,
2013-03-17 18:03:00,36.9,16.5,29.29,ENE,60,5.8,6.3,43,0.00,,BKN,0.00,VWS V13.01,2013-03-17 22:03:00,
2013-03-17 18:08:00,36.9,15.9,29.32,ENE,65,4.9,4.9,42,0.00,,BKN,0.00,VWS V13.01,2013-03-17 22:08:00,
2013-03-17 18:13:00,36.7,15.8,29.32,NE,49,3.6,4.5,42,0.00,,BKN,0.00,VWS V13.01,2013-03-17 22:13:00,
2013-03-17 18:18:00,36.7,15.8,29.32,ENE,62,2.7,3.1,42,0.00,,BKN,0.00,VWS V13.01,2013-03-17 22:18:00,
2013-03-17 18:23:00,36.9,15.9,29.32,ESE,116,3.1,4.0,42,0.00,,BKN,0.00,VWS V13.01,2013-03-17 22:23:00,
2013-03-17 18:28:00,36.9,15.9,29.32,ESE,116,0.0,0.0,42,0.00,,BKN,0.00,VWS V13.01,2013-03-17 22:28:00,
2013-03-17 18:33:00,36.7,15.8,29.32,ESE,115,4.0,4.5,42,0.00,,BKN,0.00,VWS V13.01,2013-03-17 22:33:00,
2013-03-17 18:38:00,36.7,16.3,29.32,East,94,2.7,3.6,43,0.00,,BKN,0.00,VWS V13.01,2013-03-17 22:38:00,
2013-03-17 18:43:00,36.7,16.3,29.32,ESE,121,3.6,4.0,43,0.00,,BKN,0.00,VWS V13.01,2013-03-17 22:43:00,
2013-03-17 18:48:00,36.5,16.1,29.32,ESE,104,3.6,3.6,43,0.00,,BKN,0.00,VWS V13.01,2013-03-17 22:48:00,
2013-03-17 18:53:00,36.5,16.1,29.32,ESE,104,2.7,2.7,43,0.00,,BKN,0.00,VWS V13.01,2013-03-17 22:53:00,
2013-03-17 18:58:00,36.5,16.7,29.32,ESE,104,2.7,3.1,44,0.00,,BKN,0.00,VWS V13.01,2013-03-17 22:58:00,
2013-03-17 19:03:00,36.5,16.1,29.32,ESE,105,2.7,4.5,43,0.00,,BKN,0.00,VWS V13.01,2013-03-17 23:03:00,
2013-03-17 19:08:00,36.3,16.5,29.32,ESE,106,4.0,4.9,44,0.00,,BKN,0.00,VWS V13.01,2013-03-17 23:08:00,
2013-03-17 19:13:00,36.3,16.5,29.32,ESE,113,0.0,2.7,44,0.00,,BKN,0.00,VWS V13.01,2013-03-17 23:13:00,
2013-03-17 19:18:00,36.1,16.4,29.32,ESE,113,3.1,4.5,44,0.00,,BKN,0.00,VWS V13.01,2013-03-17 23:18:00,
2013-03-17 19:23:00,36.1,16.4,29.32,ESE,115,4.5,4.9,44,0.00,,BKN,0.00,VWS V13.01,2013-03-17 23:23:00,
2013-03-17 19:28:00,36.0,16.2,29.32,SE,139,3.6,4.0,44,0.00,,BKN,0.00,VWS V13.01,2013-03-17 23:28:00,
2013-03-17 19:33:00,36.0,16.2,29.32,SE,138,3.1,4.0,44,0.00,,BKN,0.00,VWS V13.01,2013-03-17 23:33:00,
2013-03-17 19:38:00,36.0,16.7,29.32,SE,138,4.0,4.0,45,0.00,,BKN,0.00,VWS V13.01,2013-03-17 23:38:00,
2013-03-17 19:43:00,36.0,16.7,29.32,SE,138,3.1,3.1,45,0.00,,BKN,0.00,VWS V13.01,2013-03-17 23:43:00,
2013-03-17 19:48:00,36.0,16.7,29.32,SE,138,3.6,3.6,45,0.00,,BKN,0.00,VWS V13.01,2013-03-17 23:48:00,
2013-03-17 19:53:00,36.0,16.7,29.35,SE,138,2.7,4.0,45,0.00,,BKN,0.00,VWS V13.01,2013-03-17 23:53:00,
2013-03-17 19:58:00,35.8,16.5,29.35,SE,137,4.0,4.0,45,0.00,,BKN,0.00,VWS V13.01,2013-03-17 23:58:00,
2013-03-17 20:03:00,35.8,16.5,29.35,SE,130,0.0,0.0,45,0.00,,BKN,0.00,VWS V13.01,2013-03-18 00:03:00,
2013-03-17 20:08:00,35.8,17.0,29.35,ESE,119,3.1,4.0,46,0.00,,BKN,0.00,VWS V13.01,2013-03-18 00:08:00,
2013-03-17 20:13:00,35.8,17.0,29.35,ESE,111,3.6,4.0,46,0.00,,BKN,0.00,VWS V13.01,2013-03-18 00:13:00,
2013-03-17 20:18:00,35.8,17.0,29.35,ESE,109,3.1,3.1,46,0.00,,BKN,0.00,VWS V13.01,2013-03-18 00:18:00,
2013-03-17 20:23:00,35.8,17.0,29.35,ESE,109,2.7,2.7,46,0.00,,BKN,0.00,VWS V13.01,2013-03-18 00:23:00,
2013-03-17 20:28:00,35.8,17.0,29.35,ESE,109,0.0,0.0,46,0.00,,BKN,0.00,VWS V13.01,2013-03-18 00:28:00,
2013-03-17 20:33:00,35.8,17.5,29.35,ESE,109,0.0,0.0,47,0.00,,BKN,0.00,VWS V13.01,2013-03-18 00:33:00,
2013-03-17 20:38:00,35.8,17.5,29.35,ESE,109,3.6,3.6,47,0.00,,BKN,0.00,VWS V13.01,2013-03-18 00:38:00,
2013-03-17 20:43:00,35.8,17.0,29.35,ESE,109,3.6,3.6,46,0.00,,BKN,0.00,VWS V13.01,2013-03-18 00:43:00,
2013-03-17 20:48:00,35.8,17.0,29.35,ESE,109,3.6,3.6,46,0.00,,BKN,0.00,VWS V13.01,2013-03-18 00:48:00,
2013-03-17 20:53:00,35.8,17.0,29.35,ESE,109,3.6,3.6,46,0.00,,BKN,0.00,VWS V13.01,2013-03-18 00:53:00,
2013-03-17 20:58:00,35.8,17.0,29.35,ESE,109,3.6,3.6,46,0.00,,BKN,0.00,VWS V13.01,2013-03-18 00:58:00,
2013-03-17 21:03:00,35.8,17.5,29.35,ESE,109,3.6,3.6,47,0.00,,BKN,0.00,VWS V13.01,2013-03-18 01:03:00,
2013-03-17 21:08:00,35.8,17.5,29.35,ESE,109,3.6,3.6,47,0.00,,BKN,0.00,VWS V13.01,2013-03-18 01:08:00,
2013-03-17 21:13:00,35.8,17.5,29.35,ESE,109,3.6,3.6,47,0.00,,BKN,0.00,VWS V13.01,2013-03-18 01:13:00,
2013-03-17 21:18:00,35.8,17.5,29.35,ESE,109,3.6,3.6,47,0.00,,BKN,0.00,VWS V13.01,2013-03-18 01:18:00,
2013-03-17 21:23:00,35.8,17.5,29.35,ESE,109,3.6,3.6,47,0.00,,BKN,0.00,VWS V13.01,2013-03-18 01:23:00,
2013-03-17 21:28:00,35.8,17.5,29.35,ESE,109,3.6,3.6,47,0.00,,BKN,0.00,VWS V13.01,2013-03-18 01:28:00,
2013-03-17 21:33:00,35.6,17.4,29.35,ESE,109,3.6,3.6,47,0.00,,BKN,0.00,VWS V13.01,2013-03-18 01:33:00,
2013-03-17 21:38:00,35.6,17.4,29.35,ESE,109,3.6,3.6,47,0.00,,BKN,0.00,VWS V13.01,2013-03-18 01:38:00,
2013-03-17 21:43:00,35.6,17.4,29.35,ESE,109,3.6,3.6,47,0.00,,BKN,0.00,VWS V13.01,2013-03-18 01:43:00,
2013-03-17 21:48:00,35.6,17.4,29.35,ESE,109,3.6,3.6,47,0.00,,BKN,0.00,VWS V13.01,2013-03-18 01:48:00,
2013-03-17 21:52:00,35.6,17.9,29.35,ESE,109,3.6,3.6,48,0.00,,BKN,0.00,VWS V13.01,2013-03-18 01:52:00,
2013-03-17 21:57:00,35.6,17.9,29.35,ESE,109,3.6,3.6,48,0.00,,BKN,0.00,VWS V13.01,2013-03-18 01:57:00,
2013-03-17 22:02:00,35.4,17.7,29.35,ESE,109,3.6,3.6,48,0.00,,BKN,0.00,VWS V13.01,2013-03-18 02:02:00,
2013-03-17 22:07:00,35.4,18.2,29.35,ESE,109,3.6,3.6,49,0.00,,BKN,0.00,VWS V13.01,2013-03-18 02:07:00,
2013-03-17 22:12:00,35.4,18.2,29.35,ESE,109,3.6,3.6,49,0.00,,BKN,0.00,VWS V13.01,2013-03-18 02:12:00,
2013-03-17 22:17:00,35.2,18.0,29.35,ESE,109,3.6,3.6,49,0.00,,BKN,0.00,VWS V13.01,2013-03-18 02:17:00,
2013-03-17 22:22:00,35.2,18.0,29.35,ESE,109,3.6,3.6,49,0.00,,BKN,0.00,VWS V13.01,2013-03-18 02:22:00,
2013-03-17 22:27:00,35.1,17.8,29.35,ESE,109,3.6,3.6,49,0.00,,BKN,0.00,VWS V13.01,2013-03-18 02:27:00,
2013-03-17 22:32:00,35.1,17.8,29.35,ESE,109,3.6,3.6,49,0.00,,BKN,0.00,VWS V13.01,2013-03-18 02:32:00,
2013-03-17 22:37:00,34.9,19.1,29.35,SSE,159,3.6,4.0,52,0.00,,BKN,0.00,VWS V13.01,2013-03-18 02:37:00,
2013-03-17 22:42:00,34.9,19.5,29.35,SSE,166,3.6,4.9,53,0.00,,BKN,0.00,VWS V13.01,2013-03-18 02:42:00,
2013-03-17 22:47:00,34.7,19.3,29.35,SSE,165,0.0,2.7,53,0.00,,BKN,0.00,VWS V13.01,2013-03-18 02:47:00,
2013-03-17 22:52:00,34.7,19.8,29.38,South,181,4.0,4.9,54,0.00,,BKN,0.00,VWS V13.01,2013-03-18 02:52:00,
2013-03-17 22:57:00,34.5,20.0,29.38,South,171,4.5,4.9,55,0.00,,BKN,0.00,VWS V13.01,2013-03-18 02:57:00,
2013-03-17 23:02:00,34.3,20.3,29.38,SSW,197,5.4,5.4,56,0.00,,BKN,0.00,VWS V13.01,2013-03-18 03:02:00,
2013-03-17 23:07:00,34.3,21.1,29.38,South,170,4.0,6.3,58,0.00,,BKN,0.00,VWS V13.01,2013-03-18 03:07:00,
2013-03-17 23:12:00,34.2,21.3,29.38,South,170,4.0,5.4,59,0.00,,BKN,0.00,VWS V13.01,2013-03-18 03:12:00,
2013-03-17 23:17:00,34.0,21.6,29.38,SSE,168,3.6,4.0,60,0.00,,BKN,0.00,VWS V13.01,2013-03-18 03:17:00,
2013-03-17 23:22:00,33.8,21.8,29.38,South,169,4.9,4.9,61,0.00,,BKN,0.00,VWS V13.01,2013-03-18 03:22:00,
2013-03-17 23:27:00,33.8,22.2,29.38,SSE,168,4.0,4.0,62,0.00,,BKN,0.00,VWS V13.01,2013-03-18 03:27:00,
2013-03-17 23:32:00,33.8,22.2,29.38,SSE,166,0.0,4.5,62,0.00,,BKN,0.00,VWS V13.01,2013-03-18 03:32:00,
2013-03-17 23:37:00,33.8,22.5,29.38,SSE,166,4.0,4.5,63,0.00,,BKN,0.00,VWS V13.01,2013-03-18 03:37:00,
2013-03-17 23:42:00,33.8,22.5,29.38,SSE,166,3.1,3.6,63,0.00,,BKN,0.00,VWS V13.01,2013-03-18 03:42:00,
2013-03-17 23:47:00,33.6,22.4,29.38,SSE,166,2.7,2.7,63,0.00,,BKN,0.00,VWS V13.01,2013-03-18 03:47:00,
2013-03-17 23:52:00,33.6,22.4,29.38,SSE,166,3.6,3.6,63,0.00,,BKN,0.00,VWS V13.01,2013-03-18 03:52:00,
2013-03-17 23:57:00,33.6,22.8,29.38,SSE,166,2.7,4.0,64,0.00,,BKN,0.00,VWS V13.01,2013-03-18 03:57:00,